Regional Weather Roundup
Issued by NWS Burlington, VT

Home | Current Version | Previous Version | Text Only | Print | Product List | Glossary On
Versions: 1 2 3 4 5 6 7 8 9 10 11 12 13 14 15 16 17 18 19 20 21 22 23 24 25 26 27 28 29 30 31 32 33 34 35 36 37 38 39 40 41 42 43 44 45 46 47 48 49 50
000
ASUS41 KBTV 280130
RWRBTV
VERMONT REGIONAL WEATHER ROUNDUP
NATIONAL WEATHER SERVICE BURLINGTON VT
900 PM EDT FRI MAY 27 2016

NOTE: "FAIR" INDICATES FEW OR NO CLOUDS BELOW 12,000 FEET WITH NO
SIGNIFICANT WEATHER AND/OR OBSTRUCTIONS TO VISIBILITY.

* THESE REPORTS ARE NOT UNDER NWS QUALITY CONTROL AND/OR DO NOT
  REPORT WEATHER SUCH AS PRECIPITATION AND FOG.

VTZ001>019-280200-
_____VERMONT_____


CITY           SKY/WX    TMP DP  RH WIND       PRES   REMARKS
BURLINGTON     MOCLDY    82  63  52 S9        29.93R
MONTPELIER     FAIR      76  61  59 S5        30.01R
MORRISVILLE    FAIR      73  64  73 S3        29.96R
ST. JOHNSBURY*   N/A     78  62  57 MISG      29.94R
LYNDONVILLE*   MOCLDY    75  63  65 S5        30.00R
RUTLAND*       FAIR      77  64  64 CALM      29.99R
SPRINGFIELD    FAIR      75  67  76 CALM      29.98S
HIGHGATE*      FAIR      74  64  70 CALM      29.93R
NEWPORT*       FAIR      75  63  66 S3        29.96R
BENNINGTON     FAIR      77  63  61 VRB3      30.00R
SUTTON*          N/A     70 N/A N/A MISG        N/A
MT. MANSFIELD*   N/A     66 N/A N/A NW23        N/A

_____LAKE CHAMPLAIN_____


CITY           SKY/WX    TMP DP  RH WIND       PRES   REMARKS
BURTON ISLAND*   N/A     77  63  61 S9          N/A
COLCHESTER RF*   N/A     82  64  54 SW12        N/A
DIAMOND ISL*     N/A     82  64  54 SW12        N/A

$$

NYZ007-026>031-035-052-083-087-280200-
_____NORTHERN NEW YORK_____


CITY           SKY/WX    TMP DP  RH WIND       PRES   REMARKS
PLATTSBURGH    PTCLDY    80  62  54 CALM      29.91R
SARANAC LAKE   MOCLDY    75  61  61 W6        30.01R
MASSENA        CLOUDY    78  65  63 SW10      29.95R
OGDENSBURG*    CLEAR     75  66  73 SW7       29.96R
WATERTOWN      CLOUDY    72  66  81 CALM      29.98R HAZE
ALBANY         CLOUDY    78  67  68 S10       29.98R
GLENS FALLS    MOCLDY    80  64  58 S6        29.97R

$$
NHZ002-005-011-280200-
_____NEW HAMPSHIRE_____


CITY           SKY/WX    TMP DP  RH WIND       PRES   REMARKS
LEBANON        CLEAR     79  66  64 S8        29.97R
MT WASHINGTON  MOCLDY    55  54  94 SW41G51     N/A
PLYMOUTH       FAIR      69  64  83 CALM      30.00R
WHITEFIELD     CLEAR     76  61  59 SW3       29.97R

$$

_____REGIONAL QUEBEC LOCATIONS_____


CITY           SKY/WX    TMP DP  RH WIND       PRES   REMARKS
MONTREAL       CLOUDY    73  68  83 SW5       29.90R
QUEBEC CITY    MOCLDY    70  64  83 SW3       29.89R
SHERBROOKE     MOCLDY    72  66  83 W5        29.93R

_____REGIONAL ONTARIO LOCATIONS_____


CITY           SKY/WX    TMP DP  RH WIND       PRES   REMARKS
OTTAWA         MOCLDY    79  66  65 SW7       29.94R

______KEY______
VSB  - VISIBILITY IN MILES
WCI  - WIND CHILL INDEX
HX   - HEAT INDEX
$$
NNNN




USA.gov is the U.S. government's official web portal to all federal, state and local government web resources and services.